This is the latest recevied weather packets stored in our database for station/object W4KBW. If no packets are shown the sender has not sent any weather packets the latest 1 day(s).
| Time | Temp. | Humidity | Pressure | Rain* | Wind** | Luminosity | Snow |
|---|---|---|---|---|---|---|---|
| 1778099140 | 35° C | 100% | 1013.7 hPa | 0 mm | - | - | - |
| 1778098104 | 35° C | 100% | 1013.7 hPa | 0 mm | - | - | - |
| 1778097174 | 35° C | 100% | 1013.8 hPa | 0 mm | - | - | - |
| 1778096406 | 35° C | 100% | 1014.1 hPa | 0 mm | - | - | - |
| 1778096274 | 35° C | 100% | 1014.1 hPa | 0 mm | - | - | - |
| 1778094474 | 34.44° C | 100% | 1014.3 hPa | 0 mm | - | - | - |
| 1778092674 | 34.44° C | 100% | 1014.8 hPa | 0 mm | - | - | - |
| 1778091889 | 33.33° C | 100% | 1014.9 hPa | 0 mm | - | - | - |
| 1778091744 | 33.33° C | 100% | 1014.9 hPa | 0 mm | - | - | - |
| 1778090814 | 33.33° C | 100% | 1015.2 hPa | 0 mm | - | - | - |
| 1778090151 | 33.33° C | 100% | 1015.4 hPa | 0 mm | - | - | - |
| 1778089914 | 33.33° C | 100% | 1015.4 hPa | 0 mm | - | - | - |
| 1778089092 | 33.33° C | 100% | 1015.7 hPa | 0 mm | - | - | - |
| 1778088984 | 33.33° C | 100% | 1015.7 hPa | 0 mm | - | - | - |
| 1778088084 | 33.33° C | 100% | 1015.8 hPa | 0 mm | - | - | - |
| 1778087184 | 32.22° C | 100% | 1015.8 hPa | 0 mm | - | - | - |
| 1778086284 | 31.67° C | 100% | 1016 hPa | 0 mm | - | - | - |
| 1778085495 | 31.67° C | 100% | 1016.1 hPa | 0 mm | - | - | - |
| 1778085384 | 31.67° C | 100% | 1016.1 hPa | 0 mm | - | - | - |
| 1778084484 | 31.67° C | 100% | 1016.2 hPa | 0 mm | - | - | - |
| 1778083584 | 31.67° C | 100% | 1016.1 hPa | 0 mm | - | - | - |
| 1778082654 | 30.56° C | 100% | 1016.1 hPa | 0 mm | - | - | - |
| 1778081754 | 30.56° C | 100% | 1016.1 hPa | 0 mm | - | - | - |
| 1778080824 | 30° C | 100% | 1016.2 hPa | 0 mm | - | - | - |
| 1778080027 | 29.44° C | 100% | 1016.3 hPa | 0 mm | - | - | - |
* Rain latest hour (hover to see other rain measurements)
** Current wind speed in m/s (hover to see current wind gust speed)